SBIRS GEO-6 (USA 336) (53355 NORAD) Tracking and Keplerian Element Data

This shows tracking and keplerian element data for the satellite.

Feedback or suggestion? Click here.




ElementValue
Catalog53355
NameSBIRS GEO-6 (USA 336)
Epoch Orbit60
Epoch Day269.71344854
Epoch Year2022
RAAN312.2306
Inclination6.5004
Eccentricity0.0002855
Argument of Perigee325.5946
Mean Anonmoly199.4817
Mean Motion1.00278096
Decay Rate1.11E-06
L11 53355U 22092A 22269.71344854 .00000111 00000+0 00000+0 0 9994
L22 53355 6.5004 312.2306 0002855 325.5946 199.4817 1.00278096 607

Live tracking and technical data element details for SBIRS GEO-6 (USA 336) (NORAD 53355). SBIRS GEO-6 (USA 336) can be tracked NOW for your location showing map with azimuth and elevation plus other details from your city location.

Track the satellite on the map from your city or location and see movement details for azimuth, elevation, latitude, longitude, range, height, and movement on the map or in text.







IsCatalogInMostPopularTable: catalog: 53355, numindb: 3
Update: records affected: 1



GetName: 53355 SBIRS GEO-6 (USA 336)

Hit Count: updated at: Wed, 28 Sep 2022 22:48:35 GMT